Location: Marcé
(47.5801°N, 0.3280°W)
Time: 16:36:37
(UTC+01:00)

SR - Pass Details

Date: 04 December 2021
Orbit: 582 x 872 km, 66.7° (Epoch: 22 January)

Event Time Altitude Azimuth Distance (km) Brightness Sun altitude
Rises 02:19:00 0° 259° (WSW) 2,920 - -59.2°
Reaches altitude 10° 02:21:56 10° 278° (W) 1,974 - -58.8°
Maximum altitude 02:25:02 18° 323° (NW) 1,470 - -58.5°
Drops below altitude 10° 02:28:04 10° 8° (N) 1,923 - -58.1°
Sets 02:30:52 0° 27° (NNE) 2,816 - -57.8°
